#timestamp,LO_Frequency,Hit 
1499644815.8,286047094.7,N
1499644835.6,286047096.0,N
1499644855.4,286047096.8,N
1499644875.3,286047094.2,N
1499644895.1,286047096.0,N
1499644915.8,286047095.7,N
1499644935.7,286047098.6,N
1499644955.5,286047098.5,N
1499644975.3,286047095.3,N
1499644995.2,286047096.8,N
1499645015.9,286047094.2,N
1499645035.7,286047094.4,N
1499645055.6,286047096.7,N
1499645075.4,286047096.9,N
1499645095.2,286047096.0,N
1499645115.0,286047097.1,N
1499645116.0,286047097.1,N
1499645135.8,286047098.0,N
1499645155.6,286047098.6,N
1499645175.4,286047100.0,N
1499645195.3,286047097.3,N
1499645215.1,286047099.2,N
1499645235.8,286047101.8,N
1499645255.7,286047101.4,N
1499645275.5,286047101.0,N
1499645295.3,286047103.0,N
1499645315.2,286047102.9,N
1499645335.9,286047100.9,N
1499645355.7,286047103.3,N
1499645375.6,286047102.6,N
1499645395.4,286047102.8,N
1499645415.2,286047101.2,N
1499645435.1,286047101.4,N
1499645436.0,286047101.4,N
1499645455.8,286047100.6,N
1499645475.6,286047105.2,N
1499645495.5,286047104.5,N
1499645515.3,286047104.2,N
1499645535.1,286047106.4,Y
1499645555.9,286047064.7,N
1499645575.7,286047062.1,N
1499645595.5,286047062.4,N
1499645615.4,286047063.0,N
1499645635.2,286047063.6,N
1499645655.0,286047061.0,N
1499645655.9,286047061.0,N
1499645675.8,286047058.9,N
1499645695.6,286047059.1,N
1499645715.4,286047057.5,N
1499645735.2,286047059.9,N
1499645755.1,286047057.4,N
1499645756.0,286047057.4,N
1499645775.8,286047057.6,N
1499645795.6,286047055.7,N
1499645815.5,286047061.6,N
1499645835.3,286047061.3,N
1499645855.1,286047061.0,N
1499645875.9,286047060.6,N
1499645895.7,286047063.4,N
1499645915.5,286047062.1,N
1499645935.4,286047060.7,N
1499645955.2,286047061.1,N
1499645975.0,286047061.8,N
1499645975.9,286047061.8,N
1499645995.8,286047063.6,N
1499646015.6,286047063.2,N
1499646035.4,286047063.6,N
1499646055.3,286047063.5,N
1499646075.1,286047059.0,N
1499646076.0,286047059.0,N
1499646095.8,286047059.2,N
1499646115.7,286047060.5,N
1499646135.5,286047062.8,N
1499646155.3,286047063.4,N
1499646175.2,286047061.6,N
1499646195.9,286047059.0,N
1499646215.7,286047061.0,N
1499646235.5,286047063.2,N
1499646255.4,286047062.1,N
1499646275.2,286047065.2,N
1499646295.0,286047065.2,N
1499646295.9,286047065.2,N
1499646315.8,286047062.5,N
1499646335.6,286047062.9,N
1499646355.4,286047063.2,N
1499646375.3,286047062.8,N
1499646395.1,286047063.6,N
1499646415.8,286047063.1,N
1499646435.7,286047060.9,N
1499646455.5,286047063.5,N
1499646475.3,286047063.1,N
1499646495.2,286047061.3,N
1499646515.9,286047061.2,N
1499646535.7,286047063.3,N
1499646555.6,286047060.9,N
1499646575.4,286047061.4,N
1499646595.2,286047061.4,N
1499646615.0,286047059.0,N
1499646616.0,286047059.0,N
1499646635.8,286047059.2,N
1499646655.6,286047061.2,N
1499646675.4,286047062.4,N
1499646695.3,286047065.1,N
1499646715.1,286047062.1,N
1499646735.8,286047066.8,N
1499646755.7,286047062.5,N
1499646775.5,286047062.6,N
1499646795.3,286047063.0,N
1499646815.2,286047062.4,N
1499646835.9,286047065.1,N
1499646855.7,286047065.0,N
1499646875.6,286047065.2,N
1499646895.4,286047064.8,N
1499646915.2,286047065.0,N
1499646935.1,286047064.5,N
1499646936.0,286047064.5,N
1499646955.8,286047065.1,N
1499646975.6,286047064.9,N
1499646995.4,286047065.0,N
1499647015.3,286047062.2,N
1499647035.1,286047065.2,N
1499647055.8,286047065.1,N
1499647075.7,286047064.8,N
1499647095.5,286047064.1,N
1499647115.3,286047066.1,N
1499647135.2,286047066.4,N
1499647155.9,286047066.5,N
1499647175.7,286047066.2,N
1499647195.6,286047067.1,N
1499647215.4,286047067.0,N
1499647235.2,286047067.8,N
1499647255.1,286047068.0,N
1499647256.0,286047068.0,N
1499647275.8,286047066.2,N
1499647295.6,286047067.3,N
1499647315.4,286047067.1,N
1499647335.3,286047068.2,N
1499647355.1,286047066.2,N
1499647375.8,286047068.2,N
1499647395.7,286047065.7,N
1499647415.5,286047068.0,N
1499647435.3,286047067.7,N
1499647455.2,286047070.0,N
1499647475.9,286047069.1,N
1499647495.7,286047068.1,N
1499647515.6,286047069.1,N
1499647535.4,286047071.2,N
1499647555.2,286047071.3,N
1499647575.0,286047071.2,N
1499647576.0,286047071.2,N
1499647595.8,286047068.7,N
1499647615.6,286047068.7,N
1499647635.4,286047067.4,N
1499647655.3,286047068.6,N
1499647675.1,286047071.3,N
1499647695.8,286047070.4,N
1499647715.7,286047069.0,N
1499647735.5,286047071.3,N
1499647755.3,286047071.4,N
1499647775.2,286047072.8,N
1499647795.9,286047072.6,N
1499647815.7,286047071.8,N
1499647835.6,286047074.1,N
1499647855.4,286047076.1,N
1499647875.2,286047073.4,N
1499647895.0,286047076.0,N
1499647896.0,286047076.0,N
1499647915.8,286047074.1,N
1499647935.6,286047072.4,N
1499647955.4,286047072.3,N
1499647975.3,286047076.4,N
1499647995.1,286047072.2,N
1499648015.8,286047070.3,N
1499648035.7,286047071.4,N
1499648055.5,286047072.5,N
1499648075.3,286047070.3,N
1499648095.2,286047072.5,N
1499648115.9,286047072.9,N
1499648135.7,286047071.9,N
1499648155.6,286047073.8,N
1499648175.4,286047075.6,N
1499648195.2,286047077.7,N
1499648215.1,286047076.9,N
1499648216.0,286047076.9,N
1499648235.8,286047077.2,N
1499648255.6,286047077.3,N
1499648275.5,286047075.0,N
1499648295.3,286047077.8,N
1499648315.1,286047077.5,N
1499648335.8,286047073.7,N
1499648355.7,286047073.7,N
1499648375.5,286047074.3,N
1499648395.3,286047073.6,N
